[[{"header":{"parameterUnit":"m.s-1","parameterCategory":1,"la1":30.2991,"la2":30.254,"lo1":-89.0895,"lo2":-89.0444,"dy":0.0017,"dx":0.0017,"nx":28,"ny":28,"refTime":"2025-12-28T09:00:00:Z","depth":0,"parameterNumber":2,"parameterNumberName":"U-component_of_WINDS"},"data":[0,0,0,0,0,0,0,0,0,0,0,0,0,0,0,0,0,0,0,0,0,0,0,0,0,0,0,0,0,0,0,0,0,0,0,0,0,0,0,0,0,0,0,0,0,0,0,0,0,0,0,0,0,0,0,0,0,0,1.582,1.5821,0,1.5849,1.585,1.585,1.5854,1.5854,1.5854,1.5853,1.5882,1.5883,1.5884,0,0,0,0,0,0,0,0,0,0,0,0,0,1.5769,1.577,1.582,1.5821,1.5821,1.5849,1.585,1.585,1.5854,1.5854,1.5853,1.5853,1.5882,1.5883,1.5884,0,0,0,0,0,0,0,0,0,0,0,0,0,1.5794,1.577,1.582,1.5826,1.5827,1.5849,1.585,1.585,1.5854,1.5854,1.5853,1.5853,1.5882,1.5883,1.5885,1.5902,0,0,1.5889,1.589,0,0,0,0,0,0,0,0,1.5793,1.5796,1.5825,1.5826,1.5827,1.5848,1.5842,1.5868,1.5854,1.5844,1.5853,1.5853,1.5871,1.5873,1.588,1.5903,1.5905,1.5889,1.589,1.5891,1.5891,0,0,0,0,0,0,0,1.5791,1.5795,1.5832,1.5826,1.5827,1.5828,1.5831,1.5847,1.5859,1.5845,1.5845,1.5849,1.5872,1.5878,1.588,1.5905,1.5889,1.5891,1.5892,1.5892,1.5946,1.5946,0,0,0,0,0,0,1.5788,1.5793,1.5831,1.5833,1.5808,1.5829,1.5833,1.5841,1.5859,1.5862,1.5849,1.5849,1.5876,1.5879,1.5881,1.5904,1.5891,1.5892,1.5893,1.5945,1.5946,1.5947,0,0,0,0,0,0,1.5787,1.5791,1.583,1.5813,1.5818,1.5831,1.584,1.5842,1.5849,1.5862,1.5865,1.5853,1.5876,1.5879,1.5897,1.5905,1.5893,1.5894,1.5945,1.5946,1.5946,1.5948,0,0,0,0,0,0,1.5785,1.5791,1.5797,1.5813,1.5819,1.5845,1.5841,1.5843,1.5852,1.5852,1.5867,1.5869,1.5876,1.5895,1.5899,1.5907,1.5896,1.5944,1.5945,1.5946,1.5947,1.5948,1.595,0,0,0,0,0,1.5783,1.5796,1.5797,1.5802,1.5827,1.5845,1.5848,1.5855,1.5852,1.5859,1.5868,1.5869,1.5904,1.5897,1.5901,1.5909,1.5944,1.5945,1.5946,1.5946,1.5948,1.595,0,0,0,0,0,0,1.578,1.5798,1.58,1.5818,1.583,1.5846,1.5854,1.5857,1.587,1.5869,1.5877,1.5881,1.5898,1.5906,1.5898,1.5928,1.5923,1.5925,1.5922,1.5924,1.5925,1.5923,1.5897,0,0,0,0,0,1.5781,1.5794,1.581,1.5824,1.583,1.5841,1.5849,1.5854,1.5867,1.5871,1.5882,1.5894,1.5908,1.5916,1.593,1.5949,1.5952,1.5957,1.5958,1.5959,1.596,1.5972,1.5974,1.595,1.595,1.595,0,0,1.5784,1.5796,1.5803,1.5824,1.5834,1.5847,1.5845,1.5859,1.587,1.5874,1.5891,1.5899,1.5914,1.5932,1.5941,1.5939,1.5968,1.596,1.5961,1.5962,1.5973,1.5975,1.5977,1.5951,1.5951,1.5951,0,0,1.5796,1.5806,1.582,1.583,1.5845,1.5853,1.5856,1.5872,1.5878,1.5896,1.5899,1.5912,1.5935,1.5946,1.5954,1.5972,1.5974,1.5976,1.5983,1.5994,1.5996,1.5997,1.6004,1.6006,1.5978,1.5978,1.5978,0,1.5797,1.5818,1.5826,1.5841,1.585,1.5855,1.5869,1.5879,1.5897,1.5904,1.5902,1.5932,1.5942,1.5964,1.5968,1.5975,1.5979,1.5974,1.5995,1.5996,1.5998,1.6005,1.6007,1.5978,1.5978,1.5978,1.5978,0,1.5819,1.5833,1.5842,1.5861,1.5871,1.5886,1.5897,1.5906,1.5911,1.5919,1.5938,1.595,1.5967,1.5972,1.5976,1.5995,1.5994,1.5993,1.5988,1.6,1.6007,1.6009,1.5978,1.5978,1.5978,1.5978,0,0,1.5828,1.5852,1.5855,1.5864,1.5883,1.5894,1.5909,1.5926,1.5934,1.5947,1.596,1.5981,1.5981,1.599,1.5996,1.6006,1.602,1.6004,1.6005,1.6007,1.6042,1.6042,1.6044,1.6022,1.6022,1.6023,1.6041,0,1.5841,1.5868,1.5877,1.5899,1.5913,1.5919,1.5932,1.5945,1.5954,1.5967,1.5976,1.5991,1.599,1.5996,1.6006,1.6016,1.6027,1.6015,1.6034,1.6034,1.6029,1.6048,1.6047,1.6063,1.6043,1.6044,1.6044,0,1.5861,1.5875,1.5899,1.5916,1.5923,1.5934,1.5951,1.5963,1.5979,1.5984,1.5996,1.6001,1.6018,1.6013,1.6036,1.6028,1.6036,1.6043,1.6044,1.6045,1.6039,1.6049,1.6069,1.6071,1.6048,1.6048,1.6047,0,1.5865,1.589,1.5908,1.5915,1.5936,1.5945,1.5954,1.5969,1.5979,1.5993,1.6,1.6017,1.6025,1.6038,1.6048,1.6044,1.6071,1.6067,1.6076,1.6076,1.608,1.608,1.6101,1.6087,1.6087,1.6087,1.6087,0,1.5879,1.5893,1.591,1.592,1.5937,1.5948,1.5964,1.5974,1.5987,1.6,1.6007,1.6019,1.6032,1.6046,1.6054,1.6073,1.6077,1.6082,1.6084,1.6081,1.608,1.6086,1.6085,1.6087,1.6087,1.6087,1.6087,0,1.5885,1.5897,1.5917,1.5936,1.5941,1.5952,1.5969,1.598,1.599,1.6006,1.6011,1.6026,1.6043,1.6055,1.6076,1.6082,1.6102,1.6103,1.6096,1.6097,1.6105,1.6104,1.6131,1.6135,1.6118,1.6118,1.6118,0,1.5893,1.5904,1.5925,1.5934,1.5944,1.5959,1.5969,1.5981,1.5992,1.6011,1.602,1.6038,1.6052,1.608,1.6093,1.611,1.6112,1.612,1.6114,1.6111,1.6112,1.6111,1.6112,1.612,1.612,1.612,1.6121,0,1.5905,1.5911,1.5926,1.5944,1.5956,1.597,1.5984,1.5992,1.6006,1.6018,1.6036,1.6048,1.6071,1.6088,1.6107,1.6117,1.6121,1.6123,1.6126,1.6122,1.6118,1.612,1.6098,1.6122,1.6121,1.6121,1.6121,1.6121,1.5913,1.5923,1.594,1.5956,1.5969,1.5982,1.5994,1.6006,1.6021,1.604,1.6047,1.6066,1.6082,1.6108,1.6118,1.6133,1.6133,1.6137,1.6138,1.6138,1.6138,1.6116,1.6137,1.6137,1.6137,1.6137,1.6137,0,1.5925,1.5937,1.5952,1.5972,1.5986,1.599,1.6006,1.6017,1.6034,1.6049,1.6064,1.6085,1.6103,1.6118,1.6136,1.6145,1.6148,1.615,1.6149,1.6151,1.6138,1.6134,1.6148,1.6148,1.6148,1.6148,1.6148,1.6148,1.5934,1.5952,1.596,1.5985,1.5996,1.6015,1.6024,1.6037,1.6049,1.6073,1.6088,1.6098,1.6113,1.6133,1.615,1.6154,1.616,1.6162,1.6166,1.6153,1.6152,1.6151,1.6147,1.6163,1.6163,1.6178,1.6178,1.6178]},{"header":{"parameterUnit":"m.s-1","parameterCategory":1,"la1":30.2991,"la2":30.254,"lo1":-89.0895,"lo2":-89.0444,"dy":0.0017,"dx":0.0017,"nx":28,"ny":28,"refTime":"2025-12-28T09:00:00:Z","depth":0,"parameterNumber":3,"parameterNumberName":"V-component_of_WINDS"},"data":[0,0,0,0,0,0,0,0,0,0,0,0,0,0,0,0,0,0,0,0,0,0,0,0,0,0,0,0,0,0,0,0,0,0,0,0,0,0,0,0,0,0,0,0,0,0,0,0,0,0,0,0,0,0,0,0,0,0,-8.3879,-8.388,0,-8.4035,-8.4036,-8.4038,-8.3939,-8.3935,-8.393,-8.3926,-8.4079,-8.4087,-8.4095,0,0,0,0,0,0,0,0,0,0,0,0,0,-8.3489,-8.3497,-8.3878,-8.388,-8.3882,-8.4034,-8.4036,-8.4038,-8.394,-8.3934,-8.3929,-8.3924,-8.4076,-8.4086,-8.4096,0,0,0,0,0,0,0,0,0,0,0,0,0,-8.3653,-8.35,-8.3878,-8.3852,-8.3851,-8.4034,-8.4036,-8.4039,-8.3941,-8.3934,-8.3927,-8.3921,-8.4073,-8.4085,-8.4097,-8.4313,0,0,-8.4136,-8.4141,0,0,0,0,0,0,0,0,-8.3644,-8.3667,-8.3854,-8.3854,-8.3853,-8.3961,-8.3955,-8.4131,-8.3943,-8.3907,-8.3926,-8.3918,-8.4045,-8.4059,-8.4103,-8.432,-8.4327,-8.4137,-8.4144,-8.415,-8.4153,0,0,0,0,0,0,0,-8.3633,-8.366,-8.394,-8.3856,-8.3856,-8.383,-8.3846,-8.3988,-8.4012,-8.3909,-8.3903,-8.3923,-8.4043,-8.4091,-8.4106,-8.4329,-8.4137,-8.4148,-8.4155,-8.416,-8.4731,-8.4738,0,0,0,0,0,0,-8.3624,-8.3651,-8.3935,-8.3945,-8.373,-8.3843,-8.386,-8.3933,-8.4011,-8.4016,-8.3929,-8.3918,-8.4073,-8.4092,-8.4111,-8.4369,-8.415,-8.4162,-8.4169,-8.4723,-8.4733,-8.4741,0,0,0,0,0,0,-8.3616,-8.3651,-8.3929,-8.3796,-8.383,-8.3857,-8.3939,-8.394,-8.3988,-8.4025,-8.4028,-8.3974,-8.4069,-8.4093,-8.4264,-8.4373,-8.4167,-8.4179,-8.4714,-8.4726,-8.4737,-8.4887,0,0,0,0,0,0,-8.3606,-8.3648,-8.3732,-8.3799,-8.3837,-8.4081,-8.3946,-8.3948,-8.4011,-8.3998,-8.4068,-8.4073,-8.4065,-8.4246,-8.4277,-8.4387,-8.4188,-8.4705,-8.472,-8.4733,-8.4873,-8.4902,-8.4928,0,0,0,0,0,-8.3592,-8.3766,-8.3737,-8.3771,-8.3943,-8.4088,-8.4109,-8.4098,-8.402,-8.4103,-8.4127,-8.4071,-8.4356,-8.4264,-8.4298,-8.4413,-8.4698,-8.4715,-8.4732,-8.486,-8.4896,-8.4927,0,0,0,0,0,0,-8.3709,-8.3775,-8.3742,-8.3944,-8.4012,-8.4071,-8.4176,-8.4137,-8.4226,-8.421,-8.419,-8.4207,-8.4386,-8.4416,-8.4313,-8.4626,-8.4514,-8.4539,-8.46,-8.4635,-8.4662,-8.4651,-8.4199,0,0,0,0,0,-8.3758,-8.3873,-8.3923,-8.4096,-8.4132,-8.4149,-8.4211,-8.4197,-8.4265,-8.4293,-8.4329,-8.4395,-8.45,-8.4569,-8.4667,-8.4876,-8.489,-8.4972,-8.5,-8.5022,-8.5044,-8.5157,-8.5194,-8.4797,-8.4797,-8.4797,0,0,-8.3861,-8.3911,-8.3984,-8.4121,-8.4171,-8.4289,-8.4173,-8.4302,-8.4388,-8.4311,-8.4476,-8.4505,-8.4577,-8.4769,-8.4855,-8.48,-8.5157,-8.5044,-8.5062,-8.5071,-8.5179,-8.5216,-8.525,-8.4809,-8.4807,-8.4805,0,0,-8.4108,-8.4158,-8.4308,-8.4362,-8.4441,-8.4451,-8.4488,-8.4554,-8.4571,-8.4736,-8.4681,-8.4782,-8.4963,-8.5017,-8.5069,-8.5339,-8.529,-8.5371,-8.5515,-8.5626,-8.5657,-8.5685,-8.5781,-8.5816,-8.5392,-8.5393,-8.5393,0,-8.4226,-8.4403,-8.439,-8.4524,-8.4586,-8.4524,-8.4675,-8.4727,-8.4833,-8.4876,-8.4813,-8.504,-8.5084,-8.5288,-8.5354,-8.5397,-8.5437,-8.5363,-8.5654,-8.5681,-8.5707,-8.5799,-8.5835,-8.5402,-8.5401,-8.54,-8.5399,0,-8.4543,-8.4667,-8.4778,-8.4885,-8.4959,-8.5101,-8.5108,-8.5184,-8.5164,-8.518,-8.5349,-8.54,-8.5508,-8.5555,-8.5536,-8.5757,-8.572,-8.5656,-8.5543,-8.5755,-8.584,-8.5875,-8.5415,-8.5412,-8.5409,-8.5407,0,0,-8.4867,-8.4968,-8.5009,-8.5057,-8.514,-8.5235,-8.5373,-8.5481,-8.5547,-8.5622,-8.5738,-8.5893,-8.5835,-8.5893,-8.5879,-8.5976,-8.6187,-8.59,-8.5901,-8.5952,-8.6434,-8.6482,-8.6523,-8.6156,-8.6162,-8.6167,-8.6428,0,-8.512,-8.5365,-8.5358,-8.5586,-8.5699,-8.5643,-8.5764,-8.5827,-8.5846,-8.5944,-8.5963,-8.6074,-8.5989,-8.6024,-8.6118,-8.6142,-8.6283,-8.6122,-8.6261,-8.6266,-8.6245,-8.6567,-8.6618,-8.6862,-8.6461,-8.6467,-8.6471,0,-8.5448,-8.5538,-8.5777,-8.5845,-8.5892,-8.6002,-8.6101,-8.6195,-8.6265,-8.6272,-8.6339,-8.631,-8.6448,-8.6332,-8.6523,-8.6414,-8.647,-8.649,-8.6499,-8.6512,-8.6382,-8.6589,-8.6939,-8.6976,-8.6524,-8.6519,-8.6516,0,-8.5661,-8.5842,-8.6009,-8.6052,-8.6135,-8.6213,-8.625,-8.6314,-8.638,-8.6466,-8.6508,-8.6608,-8.6663,-8.674,-8.6738,-8.6653,-8.6931,-8.6814,-8.6939,-8.694,-8.7,-8.6997,-8.7365,-8.7037,-8.7036,-8.7035,-8.7035,0,-8.5945,-8.6093,-8.6106,-8.6209,-8.6373,-8.6363,-8.6526,-8.6555,-8.6613,-8.6719,-8.6675,-8.6775,-8.6766,-8.6867,-8.6866,-8.7024,-8.7049,-8.7057,-8.7055,-8.7062,-8.7061,-8.7098,-8.7081,-8.7045,-8.7043,-8.7041,-8.7039,0,-8.6211,-8.6225,-8.6404,-8.6469,-8.6489,-8.6607,-8.6662,-8.6758,-8.6774,-8.6909,-8.694,-8.6964,-8.708,-8.7086,-8.7219,-8.7218,-8.7411,-8.739,-8.7388,-8.7385,-8.751,-8.7498,-8.7915,-8.7969,-8.7606,-8.7609,-8.7612,0,-8.6391,-8.6505,-8.6583,-8.6652,-8.6696,-8.6807,-8.6875,-8.6869,-8.6941,-8.7031,-8.7117,-8.7229,-8.7319,-8.7507,-8.7535,-8.7637,-8.7618,-8.7757,-8.7632,-8.7636,-8.762,-8.7614,-8.7625,-8.7781,-8.7785,-8.7788,-8.7791,0,-8.6709,-8.6711,-8.6812,-8.6916,-8.6999,-8.708,-8.7155,-8.7214,-8.7216,-8.7299,-8.7419,-8.749,-8.7627,-8.7739,-8.7838,-8.7874,-8.7834,-8.783,-8.7864,-8.7872,-8.7867,-8.7872,-8.7455,-8.782,-8.7817,-8.7815,-8.7814,-8.7812,-8.6938,-8.7037,-8.7108,-8.7222,-8.7278,-8.735,-8.7445,-8.7474,-8.7575,-8.7688,-8.7677,-8.7811,-8.7877,-8.8007,-8.8052,-8.8154,-8.8106,-8.8156,-8.8169,-8.8181,-8.8195,-8.7851,-8.8172,-8.8171,-8.817,-8.817,-8.8169,0,-8.7254,-8.7298,-8.7403,-8.7511,-8.7601,-8.7557,-8.7638,-8.7715,-8.7834,-8.7901,-8.7992,-8.8129,-8.8238,-8.8276,-8.8381,-8.8456,-8.844,-8.8484,-8.8478,-8.8487,-8.8231,-8.8192,-8.8495,-8.8495,-8.8495,-8.8495,-8.8495,-8.8495,-8.7429,-8.7595,-8.7605,-8.7798,-8.7839,-8.7972,-8.8022,-8.8088,-8.8142,-8.8299,-8.839,-8.8415,-8.847,-8.8579,-8.8677,-8.8684,-8.8725,-8.8777,-8.8778,-8.8538,-8.8505,-8.8474,-8.8436,-8.8786,-8.8787,-8.9025,-8.9027,-8.9029]}]]